Wind_Speed
20 20 21 21 21 21 22 22 23 22 24 25 26 26 26 26 25 24 24 24 24 24 24 24 24 24 24 24 24 25 25 25 25 24 23 23 24 25 25 24 24 23 23 23
21 21 21 21 21 22 22 22 23 23 24 25 26 26 26 26 26 26 25 25 25 25 25 25 26 25 25 25 25 25 25 26 26 25 24 24 25 25 25 24 24 23 23 23
22 21 21 21 21 22 22 22 23 24 24 25 26 26 26 26 26 27 27 26 26 26 26 26 26 26 27 26 26 26 26 26 27 27 26 26 25 25 25 24 23 24 24 24
22 22 22 21 20 21 22 23 23 24 24 24 25 26 26 27 28 29 29 29 28 27 27 27 27 27 28 28 28 28 28 27 27 28 28 27 26 26 25 24 24 25 25 25
22 22 23 21 20 21 23 23 24 24 24 25 25 27 27 27 28 29 29 30 30 29 28 27 27 28 28 29 29 29 29 29 29 29 28 29 28 26 26 26 26 26 26 26
23 23 24 22 22 23 24 24 24 25 25 26 26 27 27 28 29 29 30 30 31 31 31 29 29 29 29 30 30 30 30 30 30 30 29 29 28 28 27 27 26 26 26 26
24 25 25 24 24 24 25 26 26 26 27 27 27 28 28 28 29 29 30 31 31 32 32 32 31 30 31 31 31 31 31 30 30 30 30 29 28 28 27 27 27 27 27 27
24 25 24 24 25 25 26 27 27 27 28 28 29 29 30 30 30 30 31 31 32 32 32 32 32 31 31 32 31 31 30 30 30 30 30 30 29 28 27 28 27 26 27 27
25 25 24 25 26 26 27 27 28 28 29 30 30 30 31 31 31 31 32 31 32 32 32 32 33 33 32 31 31 31 30 30 30 30 30 30 30 29 29 29 28 27 27 27
27 26 26 26 27 27 27 28 28 28 29 29 30 31 31 31 31 31 31 31 31 31 31 31 32 32 31 30 30 30 31 31 30 30 30 29 29 29 30 29 29 28 28 28
27 26 26 26 27 27 27 28 28 28 29 29 30 30 31 30 30 29 30 30 31 31 31 32 32 31 30 30 29 30 30 29 29 29 29 29 28 28 29 29 29 29 29 29
26 26 28 27 28 27 27 27 28 28 28 28 29 30 30 30 29 29 30 31 31 31 32 31 31 31 30 30 29 29 29 29 29 29 29 29 28 28 28 28 28 28 29 29
27 27 28 28 28 28 28 28 29 29 28 28 29 30 30 30 30 30 30 31 31 31 31 30 30 30 30 30 30 29 29 29 29 28 29 29 28 27 27 28 28 28 29 29
28 28 28 28 28 28 28 29 29 29 30 30 30 30 30 30 30 30 30 31 31 31 30 30 30 29 29 29 29 29 28 28 28 28 28 28 28 27 27 27 27 28 29 29
28 28 28 28 28 29 29 30 30 30 30 31 31 31 31 31 31 30 30 31 30 30 29 29 29 29 29 29 29 29 28 28 28 28 28 28 28 28 28 28 27 28 28 28
28 28 28 28 28 29 29 30 30 31 31 31 30 30 30 29 30 30 30 30 29 29 29 29 28 28 28 29 29 28 28 28 27 27 27 27 27 27 28 27 27 27 27 27
28 28 28 28 29 29 29 29 29 29 29 29 29 29 29 28 29 29 29 29 28 28 28 28 28 27 28 28 27 27 27 26 26 25 25 25 25 26 26 26 26 26 26 27
27 28 28 28 28 28 28 28 28 28 28 28 28 28 29 28 29 29 29 28 28 28 28 28 28 27 27 26 25 25 25 25 25 24 24 25 25 26 26 25 25 25 25 26
27 28 28 29 28 28 28 28 28 28 28 28 28 29 29 29 29 29 28 28 28 28 27 27 26 26 25 24 23 23 24 25 25 25 25 25 25 25 25 25 25 25 25 25
27 28 28 28 28 27 27 28 28 28 28 28 28 28 28 28 28 29 28 28 27 26 26 25 24 23 23 23 22 23 23 24 24 24 24 24 25 25 25 25 25 25 25 26
27 27 28 28 28 27 27 27 28 28 27 27 27 27 27 27 27 27 26 25 25 25 24 22 22 22 22 22 22 23 23 23 23 23 24 24 24 24 24 24 24 25 25 26
28 28 28 28 28 27 28 28 28 28 27 27 27 26 26 26 26 26 26 25 25 24 23 22 21 21 21 22 22 23 23 23 23 23 24 24 24 24 23 24 24 24 25 24
28 28 28 28 28 28 28 28 28 27 27 26 26 26 25 25 25 26 25 25 24 23 23 22 21 21 22 22 22 22 22 22 23 23 23 24 24 23 23 23 24 23 23 23
28 28 28 28 28 28 28 28 27 27 26 26 26 26 26 26 26 26 25 25 24 24 23 22 22 22 21 22 22 22 22 23 24 24 24 24 24 23 23 23 23 23 23 23
28 29 29 28 27 27 27 27 26 26 26 26 26 26 27 26 25 25 24 24 24 24 24 23 23 23 23 23 23 24 24 24 24 24 25 25 24 24 23 23 23 23 23 23
27 28 28 27 27 27 26 26 26 26 26 26 26 27 26 26 26 25 25 25 25 25 24 24 23 23 24 24 24 24 24 24 24 24 23 23 24 24 24 23 23 24 24 24
27 27 27 27 27 27 27 26 26 26 26 26 26 26 26 26 26 26 26 25 25 24 24 24 23 24 24 24 24 23 23 23 23 23 23 23 24 24 24 24 24 24 24 24
Wind_Direction
273 274 275 277 278 279 280 280 279 277 275 276 280 282 284 285 285 285 284 284 285 287 288 286 286 286 285 285 285 286 286 286 286 288 287 286 286 286 284 284 284 284 281 278
273 276 276 276 276 278 280 281 281 280 277 277 278 279 282 283 284 285 284 285 285 285 287 287 286 285 284 285 284 286 286 287 287 287 287 285 285 285 283 282 283 282 281 279
275 278 279 277 279 281 282 283 282 282 283 282 281 281 282 283 284 284 284 284 285 286 286 286 286 285 284 284 285 284 284 286 287 287 287 286 283 283 283 281 282 282 283 280
278 279 278 282 282 282 284 285 284 284 284 284 283 283 282 282 282 283 284 284 285 286 285 285 286 285 285 284 284 284 282 283 285 284 284 284 282 281 279 278 279 281 282 280
277 278 280 282 284 286 287 286 286 286 286 286 286 285 283 281 281 283 284 285 285 285 285 284 284 285 285 285 284 283 283 281 282 282 282 282 281 280 278 277 278 280 280 279
277 278 280 284 284 285 287 286 287 288 288 287 287 287 287 285 284 284 285 285 284 283 283 284 283 284 285 285 284 283 283 283 282 281 280 281 280 278 277 277 279 281 281 279
278 279 282 285 285 287 286 289 290 290 289 288 288 289 289 288 287 286 287 287 286 284 282 282 283 283 284 284 284 282 282 282 283 281 279 278 278 277 276 276 278 280 281 279
280 280 282 283 285 286 287 288 289 290 289 289 289 289 289 288 288 288 288 288 288 286 284 282 282 283 283 283 283 281 281 282 283 282 279 277 277 275 275 275 277 280 280 280
280 282 283 284 285 284 285 288 290 290 290 290 289 289 291 290 288 287 287 287 288 287 286 284 283 283 283 283 282 281 280 282 282 281 281 277 276 275 275 276 276 278 279 280
278 281 281 282 283 285 285 287 290 290 291 291 292 292 293 291 289 287 287 286 286 287 286 285 284 284 284 283 282 281 280 281 281 281 280 279 277 275 275 275 275 276 278 280
278 281 282 281 283 285 285 287 289 291 292 293 294 295 295 293 290 289 287 286 286 286 286 285 284 284 284 283 281 281 280 279 279 279 279 280 279 276 274 273 273 275 277 280
278 280 282 284 284 286 287 289 292 293 293 294 295 296 296 294 291 289 289 289 289 287 286 285 284 284 283 282 281 281 281 279 279 280 280 280 279 277 275 273 274 275 277 279
278 280 281 283 284 287 289 291 292 293 294 293 294 295 297 296 294 291 290 290 289 289 288 285 284 283 283 281 281 281 282 281 279 278 278 279 279 278 277 275 274 275 277 278
277 279 280 281 284 286 289 291 292 293 294 295 297 297 297 297 296 293 292 291 291 290 289 287 285 284 283 282 281 281 282 282 279 277 277 278 279 279 278 276 275 276 277 278
278 280 281 281 283 286 288 290 291 292 294 296 297 298 298 298 298 296 293 291 290 290 290 289 287 284 282 281 280 281 281 280 279 277 277 278 279 279 279 277 276 277 277 277
278 280 282 282 283 286 288 289 291 292 293 296 298 299 299 299 299 298 297 294 291 292 291 289 288 285 282 281 280 280 280 280 279 278 278 279 280 281 280 279 277 279 279 277
278 279 281 283 285 286 288 290 292 293 295 296 298 299 300 299 300 299 298 296 295 294 292 290 288 286 283 282 281 281 280 279 279 279 278 279 281 282 282 281 280 280 280 279
278 280 281 284 286 287 288 290 293 294 296 297 299 300 301 301 301 300 298 297 296 294 293 290 289 287 284 283 283 283 281 279 280 279 278 279 281 282 283 283 282 282 281 280
279 280 281 283 285 286 287 288 290 292 294 296 298 300 301 301 301 301 299 299 297 295 293 291 289 288 285 284 283 283 281 280 279 279 279 279 280 281 282 282 283 284 283 282
280 280 281 282 285 286 286 288 290 291 293 295 297 299 300 301 301 302 301 300 300 297 294 292 289 288 287 285 284 284 284 283 280 279 280 281 281 282 282 282 283 283 284 283
279 280 280 282 284 284 286 290 291 291 292 294 296 297 299 300 302 303 303 302 300 299 297 294 291 289 288 286 286 286 285 284 283 282 282 282 283 284 283 283 283 283 284 285
278 280 281 281 282 283 284 287 290 291 292 294 296 297 298 301 302 303 304 303 302 300 298 295 292 290 288 287 287 287 288 288 286 285 285 285 285 285 284 284 284 284 285 285
278 280 282 282 282 283 284 286 288 289 292 293 295 296 298 301 301 302 304 303 302 301 299 297 294 291 290 289 290 290 288 288 289 288 287 288 286 285 284 285 285 286 285 285
278 279 281 283 283 283 284 285 286 288 291 292 294 295 296 297 299 300 302 303 302 301 299 297 294 292 292 291 290 289 289 290 290 288 288 287 287 286 285 286 286 287 286 286
277 278 280 281 282 283 285 285 286 288 290 292 293 294 296 297 298 300 302 302 302 301 299 295 293 291 292 292 291 290 289 290 290 288 287 287 286 285 286 286 287 287 287 287
276 278 279 280 281 283 284 285 286 287 290 291 293 294 295 296 297 299 302 302 302 301 300 296 293 292 292 292 292 291 290 289 289 290 289 288 287 286 285 284 285 286 286 286
276 276 278 280 281 282 284 285 287 288 289 290 291 292 293 294 296 298 300 300 301 301 301 299 296 294 293 293 292 291 290 289 290 292 293 292 289 287 285 285 285 285 285 285
Height
5800 5799 5798 5798 5798 5797 5796 5796 5795 5795 5794 5792 5791 5789 5788 5786 5785 5785 5784 5782 5781 5780 5779 5778 5776 5775 5774 5773 5771 5770 5769 5767 5766 5765 5764 5763 5762 5761 5760 5759 5758 5757 5756 5755
5794 5794 5793 5792 5792 5791 5791 5790 5789 5788 5787 5786 5784 5783 5782 5780 5779 5778 5777 5776 5775 5773 5772 5771 5769 5768 5767 5766 5764 5763 5762 5761 5759 5758 5757 5756 5755 5754 5753 5752 5751 5750 5749 5749
5788 5788 5786 5786 5787 5785 5784 5783 5783 5781 5781 5779 5778 5777 5775 5774 5772 5771 5770 5768 5767 5766 5765 5763 5762 5761 5760 5758 5757 5756 5755 5754 5752 5751 5750 5749 5748 5747 5745 5744 5743 5743 5742 5741
5782 5782 5781 5783 5781 5779 5778 5777 5776 5775 5774 5772 5771 5769 5768 5767 5765 5763 5762 5761 5760 5759 5757 5756 5754 5753 5752 5751 5749 5748 5747 5746 5745 5743 5742 5741 5740 5739 5738 5737 5737 5736 5735 5734
5776 5775 5775 5776 5775 5773 5772 5771 5769 5768 5767 5765 5764 5762 5761 5759 5758 5756 5755 5753 5752 5751 5749 5748 5746 5745 5743 5742 5741 5739 5738 5737 5736 5735 5734 5732 5732 5731 5730 5729 5729 5728 5727 5726
5770 5769 5769 5770 5768 5766 5766 5764 5763 5761 5760 5758 5756 5755 5754 5752 5750 5748 5746 5745 5743 5742 5740 5739 5738 5736 5734 5733 5732 5731 5729 5728 5727 5726 5725 5724 5723 5722 5721 5721 5720 5719 5719 5718
5764 5762 5762 5763 5761 5760 5760 5758 5756 5754 5752 5751 5749 5747 5746 5744 5742 5740 5738 5736 5735 5733 5732 5730 5729 5727 5726 5724 5722 5721 5720 5719 5717 5716 5715 5715 5714 5713 5713 5712 5712 5711 5710 5710
5758 5757 5759 5756 5755 5754 5752 5750 5748 5747 5745 5743 5741 5739 5737 5735 5734 5732 5730 5728 5726 5724 5722 5721 5719 5718 5716 5715 5713 5712 5710 5709 5708 5707 5706 5705 5705 5705 5704 5704 5703 5703 5702 5702
5752 5752 5751 5749 5748 5746 5745 5743 5741 5739 5737 5735 5733 5731 5729 5727 5725 5723 5721 5719 5717 5715 5713 5711 5709 5708 5706 5705 5704 5702 5701 5700 5699 5698 5697 5696 5696 5696 5695 5695 5695 5694 5694 5693
5744 5744 5743 5741 5740 5739 5738 5736 5734 5732 5730 5727 5725 5723 5720 5718 5715 5713 5711 5709 5707 5705 5703 5701 5700 5698 5696 5695 5694 5693 5692 5691 5690 5689 5688 5687 5686 5686 5686 5686 5686 5686 5685 5685
5737 5737 5735 5734 5733 5732 5730 5728 5726 5724 5722 5719 5717 5714 5711 5709 5706 5704 5701 5699 5697 5695 5693 5692 5690 5688 5687 5685 5684 5683 5682 5681 5681 5680 5679 5678 5678 5677 5677 5677 5677 5677 5676 5676
5730 5729 5728 5727 5726 5724 5723 5721 5718 5716 5714 5711 5708 5706 5703 5700 5697 5695 5693 5690 5688 5686 5684 5682 5680 5678 5677 5676 5675 5674 5673 5672 5671 5671 5670 5669 5669 5668 5668 5668 5668 5667 5667 5667
5722 5721 5720 5719 5718 5717 5715 5713 5711 5708 5706 5703 5701 5698 5695 5692 5689 5686 5684 5681 5678 5676 5674 5672 5671 5669 5668 5666 5665 5664 5664 5663 5662 5662 5661 5661 5660 5659 5659 5659 5659 5659 5658 5658
5714 5713 5712 5711 5710 5709 5707 5705 5703 5701 5698 5695 5692 5689 5686 5683 5680 5677 5674 5672 5669 5667 5664 5663 5661 5660 5658 5657 5656 5655 5654 5654 5653 5653 5652 5652 5651 5651 5650 5650 5650 5649 5649 5648
5706 5705 5705 5703 5702 5701 5699 5697 5695 5693 5690 5687 5684 5681 5678 5675 5672 5669 5665 5663 5660 5658 5655 5654 5652 5650 5649 5648 5647 5646 5645 5645 5644 5644 5643 5643 5642 5642 5641 5641 5641 5640 5640 5639
5699 5698 5697 5696 5694 5693 5691 5689 5687 5685 5682 5679 5676 5673 5670 5666 5663 5660 5657 5654 5651 5649 5647 5645 5643 5641 5640 5639 5638 5637 5637 5636 5635 5635 5634 5634 5634 5633 5633 5632 5632 5631 5631 5630
5690 5690 5689 5688 5687 5685 5683 5681 5679 5677 5674 5671 5668 5665 5662 5659 5656 5652 5649 5646 5643 5641 5638 5636 5634 5633 5631 5630 5630 5629 5628 5628 5627 5626 5626 5626 5625 5625 5624 5624 5623 5622 5622 5621
5682 5682 5681 5680 5678 5677 5675 5673 5671 5669 5667 5664 5661 5658 5655 5652 5648 5645 5642 5638 5635 5633 5630 5628 5626 5624 5623 5622 5621 5621 5620 5619 5619 5618 5618 5618 5617 5617 5616 5615 5614 5614 5613 5612
5674 5674 5673 5672 5670 5669 5667 5666 5664 5662 5659 5656 5654 5651 5647 5644 5641 5637 5634 5631 5628 5625 5623 5620 5619 5617 5616 5615 5614 5613 5612 5612 5611 5610 5610 5609 5609 5608 5607 5607 5606 5605 5604 5603
5666 5665 5664 5663 5662 5661 5660 5658 5656 5654 5652 5649 5646 5643 5640 5637 5633 5630 5627 5623 5620 5617 5615 5613 5612 5610 5609 5608 5607 5606 5605 5604 5603 5602 5602 5601 5601 5600 5599 5598 5597 5597 5596 5595
5658 5657 5656 5656 5655 5653 5652 5650 5648 5646 5644 5641 5639 5636 5633 5630 5627 5623 5620 5617 5614 5611 5608 5607 5605 5603 5602 5601 5600 5599 5598 5597 5596 5595 5594 5593 5593 5592 5591 5590 5589 5588 5587 5586
5650 5649 5648 5648 5647 5645 5644 5642 5640 5638 5636 5634 5631 5629 5626 5623 5620 5617 5614 5611 5608 5605 5602 5600 5599 5597 5596 5594 5593 5592 5591 5590 5589 5588 5587 5586 5585 5584 5583 5582 5581 5580 5579 5578
5642 5641 5640 5639 5638 5637 5636 5634 5632 5631 5629 5626 5624 5622 5619 5617 5614 5611 5608 5605 5602 5599 5597 5594 5592 5591 5589 5588 5587 5585 5584 5583 5582 5580 5579 5578 5577 5576 5575 5574 5573 5572 5571 5570
5633 5633 5632 5631 5630 5629 5627 5626 5624 5623 5621 5619 5617 5615 5612 5610 5607 5604 5601 5598 5596 5593 5591 5589 5587 5585 5583 5582 5580 5579 5577 5576 5574 5573 5572 5571 5570 5568 5567 5566 5565 5564 5563 5562
5625 5624 5623 5622 5621 5620 5619 5618 5616 5615 5613 5611 5609 5607 5605 5602 5600 5597 5595 5592 5590 5587 5585 5583 5581 5579 5577 5575 5574 5572 5570 5569 5567 5566 5564 5563 5562 5561 5560 5559 5558 5557 5556 5554
5616 5615 5615 5614 5613 5612 5611 5610 5609 5607 5606 5604 5602 5600 5597 5595 5593 5591 5588 5586 5583 5580 5578 5576 5574 5572 5570 5568 5566 5565 5563 5561 5560 5558 5557 5555 5554 5553 5552 5551 5550 5549 5548 5547
5608 5607 5606 5606 5605 5604 5603 5602 5601 5599 5598 5596 5594 5592 5590 5588 5586 5583 5581 5579 5576 5574 5571 5569 5567 5565 5563 5561 5559 5557 5556 5554 5553 5551 5549 5548 5546 5545 5544 5543 5542 5541 5539 5538